Location: Cutler
(25.6150°N, 80.3110°W)
Time: 12:23:52
(UTC-04:00)

Vanguard 1 - All Passes

Search period start: 18 July 2018 00:00
Search period end: 28 July 2018 00:00
Orbit: 650 x 3832 km, 34.2° (Epoch: 17 July)

Date Brightness Start Highest point End Pass type
(mag) Time Alt. Az. Time Alt. Az. Time Alt. Az.
18 Jul - 01:03:12 10° W 01:08:01 38° NNW 01:12:09 10° NE night (unlit)
18 Jul - 03:24:53 10° NW 03:28:57 33° NNE 03:34:05 10° ENE visible
18 Jul - 05:44:11 10° WNW 05:49:34 82° SSW 05:58:57 10° ESE visible
18 Jul - 08:04:50 10° W 08:11:28 27° SSW 08:21:58 10° SSE daylight
18 Jul - 20:39:09 10° SSW 20:47:19 23° SSE 20:52:45 10° ESE visible
18 Jul - 23:01:02 10° WSW 23:08:43 81° SSE 23:13:33 10° ENE visible
19 Jul - 01:24:45 10° WNW 01:29:08 31° N 01:33:08 10° NE night (unlit)
19 Jul - 03:45:48 10° NW 03:50:04 41° NNE 03:55:45 10° E visible
19 Jul - 06:05:07 10° WNW 06:10:37 59° SSW 06:20:09 10° SE visible
19 Jul - 08:27:05 10° WSW 08:33:00 19° SSW 08:41:23 10° S daylight
19 Jul - 20:59:09 10° SSW 21:08:39 33° SSE 21:14:28 10° E visible
19 Jul - 23:22:25 10° WSW 23:29:41 72° NNW 23:34:25 10° ENE visible
20 Jul - 01:46:12 10° WNW 01:50:19 28° N 01:54:15 10° ENE night (unlit)
20 Jul - 04:06:39 10° WNW 04:11:06 55° NNE 04:17:23 10° E visible
20 Jul - 06:26:14 10° W 06:31:45 41° SSW 06:41:00 10° SE daylight
20 Jul - 08:50:50 10° SW 08:54:40 12° SSW 08:59:17 10° S daylight
20 Jul - 18:59:53 10° S 19:06:54 15° SSE 19:12:15 10° ESE daylight
20 Jul - 21:19:42 10° SW 21:29:54 47° SSE 21:35:47 10° E visible
20 Jul - 23:44:00 10° W 23:50:40 53° NNW 23:55:14 10° ENE visible
21 Jul - 02:07:30 10° WNW 02:11:31 29° N 02:15:32 10° ENE visible
21 Jul - 04:27:29 10° WNW 04:32:05 77° NNE 04:38:53 10° ESE visible
21 Jul - 06:47:39 10° W 06:53:00 29° SSW 07:01:23 10° SSE daylight
21 Jul - 19:18:31 10° SSW 19:28:33 22° SSE 19:35:17 10° ESE daylight
21 Jul - 21:40:41 10° SW 21:51:03 65° SSE 21:56:50 10° ENE visible
22 Jul - 00:05:42 10° W 00:11:44 40° NNW 00:16:04 10° NE visible
22 Jul - 02:28:38 10° NW 02:32:43 32° N 02:36:58 10° ENE visible
22 Jul - 04:48:22 10° WNW 04:53:03 74° SSW 05:00:09 10° ESE visible
22 Jul - 07:09:34 10° WSW 07:14:21 20° SSW 07:21:08 10° SSE daylight
22 Jul - 19:38:13 10° SSW 19:50:05 31° SSE 19:57:18 10° E daylight
22 Jul - 22:02:01 10° WSW 22:12:06 87° SSE 22:17:46 10° ENE visible
23 Jul - 00:27:25 10° WNW 00:32:52 34° N 00:37:00 10° NE visible
23 Jul - 02:49:37 10° NW 02:53:49 40° NNE 02:58:27 10° E visible
23 Jul - 05:09:24 10° WNW 05:14:03 49° SSW 05:21:08 10° SE visible
23 Jul - 07:32:43 10° SW 07:35:49 13° SSW 07:39:35 10° S daylight
23 Jul - 17:39:31 10° S 17:47:12 14° SSE 17:53:20 10° ESE daylight
23 Jul - 19:58:32 10° SW 20:11:29 42° SSE 20:18:50 10° E daylight
23 Jul - 22:23:36 10° WSW 22:33:08 72° NNW 22:38:36 10° ENE visible
24 Jul - 00:49:04 10° WNW 00:54:03 31° N 00:58:03 10° ENE visible
24 Jul - 03:10:32 10° WNW 03:14:52 55° NNE 03:19:54 10° E visible
24 Jul - 05:30:38 10° W 05:35:07 32° SSW 05:41:42 10° SSE visible
24 Jul - 17:57:27 10° S 18:09:04 21° SSE 18:17:11 10° ESE daylight
24 Jul - 20:19:20 10° SW 20:32:47 56° SSE 20:40:02 10° ENE visible
24 Jul - 22:45:25 10° W 22:54:11 55° NNW 22:59:25 10° ENE visible
25 Jul - 01:10:31 10° WNW 01:15:16 31° N 01:19:14 10° ENE visible
25 Jul - 03:31:26 10° WNW 03:35:49 82° NNE 03:41:11 10° ESE visible
25 Jul - 05:52:18 10° WSW 05:56:17 21° SSW 06:01:43 10° SSE visible
25 Jul - 18:16:44 10° SSW 18:30:45 29° SSE 18:39:40 10° E daylight
25 Jul - 20:40:32 10° SW 20:53:59 73° SSE 21:01:03 10° ENE visible
25 Jul - 23:07:20 10° W 23:15:17 45° NNW 23:20:16 10° ENE visible
26 Jul - 01:31:48 10° WNW 01:36:29 34° N 01:40:32 10° ENE visible
26 Jul - 03:52:24 10° WNW 03:56:45 64° SSW 04:02:15 10° SE visible
26 Jul - 06:14:59 10° SW 06:17:34 13° SSW 06:20:37 10° S visible
26 Jul - 16:19:57 10° SSE 16:26:45 12° SSE 16:32:37 10° SE daylight
26 Jul - 18:36:44 10° SSW 18:52:18 38° SSE 19:01:29 10° E daylight
26 Jul - 21:02:04 10° WSW 21:15:07 89° NNW 21:21:57 10° ENE visible
26 Jul - 23:29:15 10° W 23:36:28 39° NNW 23:41:11 10° ENE visible
27 Jul - 01:52:55 10° WNW 01:57:38 42° NNE 02:01:52 10° E night (unlit)
27 Jul - 04:13:32 10° W 04:17:41 39° SSW 04:22:59 10° SE visible
27 Jul - 16:36:34 10° S 16:48:46 19° SSE 16:58:03 10° ESE daylight
27 Jul - 18:57:16 10° SW 19:13:46 50° SSE 19:22:54 10° ENE daylight
27 Jul - 21:23:53 10° WSW 21:36:14 72° NNW 21:42:48 10° ENE visible
